TimeAKDT,TemperatureF,Dew PointF,Humidity,Sea Level PressureIn,VisibilityMPH,Wind Direction,Wind SpeedMPH,Gust SpeedMPH,PrecipitationIn,Events,Conditions,WindDirDegrees,DateUTC
12:16 AM,33.8,28.4,81,29.82,10.0,West,8.1,-,N/A,,Overcast,260,2013-04-29 08:16:00
12:36 AM,33.8,26.6,75,29.83,10.0,WNW,8.1,-,0.01,,Overcast,290,2013-04-29 08:36:00
12:56 AM,33.8,26.6,75,29.84,10.0,West,10.4,-,0.01,,Overcast,270,2013-04-29 08:56:00
1:16 AM,33.8,26.6,75,29.85,10.0,WSW,6.9,16.1,N/A,,Overcast,250,2013-04-29 09:16:00
1:36 AM,33.8,26.6,75,29.86,10.0,West,9.2,-,N/A,,Overcast,260,2013-04-29 09:36:00
1:56 AM,33.8,26.6,75,29.87,10.0,West,9.2,-,N/A,,Overcast,280,2013-04-29 09:56:00
2:16 AM,33.8,26.6,75,29.88,10.0,West,8.1,17.3,N/A,,Overcast,280,2013-04-29 10:16:00
2:36 AM,33.8,26.6,75,29.89,10.0,WSW,10.4,16.1,N/A,,Mostly Cloudy,250,2013-04-29 10:36:00
2:56 AM,33.8,26.6,75,29.90,10.0,West,10.4,-,N/A,,Overcast,270,2013-04-29 10:56:00
3:16 AM,33.8,26.6,75,29.91,10.0,West,12.7,16.1,N/A,,Overcast,270,2013-04-29 11:16:00
3:36 AM,32.0,26.6,80,29.92,5.0,West,5.8,-,N/A,,Overcast,260,2013-04-29 11:36:00
4:16 AM,32.0,26.6,80,29.93,5.0,West,9.2,-,N/A,,Overcast,280,2013-04-29 12:16:00
4:36 AM,32.0,26.6,80,29.94,4.0,West,8.1,-,N/A,,Overcast,260,2013-04-29 12:36:00
4:56 AM,32.0,26.6,80,29.94,5.0,West,11.5,-,N/A,,Overcast,280,2013-04-29 12:56:00
5:16 AM,32.0,24.8,75,29.95,10.0,West,6.9,16.1,N/A,,Overcast,260,2013-04-29 13:16:00
5:36 AM,32.0,26.6,80,29.95,7.0,West,5.8,-,N/A,,Overcast,270,2013-04-29 13:36:00
5:56 AM,32.0,26.6,80,29.96,3.0,West,6.9,-,N/A,,Overcast,280,2013-04-29 13:56:00
6:16 AM,30.2,24.8,80,29.97,3.0,NW,8.1,-,N/A,,Overcast,310,2013-04-29 14:16:00
6:36 AM,30.2,26.6,86,29.97,3.0,West,11.5,-,N/A,,Overcast,280,2013-04-29 14:36:00
6:56 AM,30.2,24.8,80,29.98,5.0,West,9.2,-,N/A,,Overcast,270,2013-04-29 14:56:00
7:16 AM,32.0,24.8,75,29.99,5.0,West,10.4,-,N/A,,Overcast,270,2013-04-29 15:16:00
7:36 AM,33.8,24.8,70,30.00,5.0,WSW,5.8,-,N/A,,Overcast,250,2013-04-29 15:36:00
7:56 AM,33.8,24.8,70,30.00,10.0,WNW,8.1,-,N/A,,Mostly Cloudy,300,2013-04-29 15:56:00
8:16 AM,33.8,23.0,65,30.01,10.0,WNW,6.9,-,N/A,,Mostly Cloudy,290,2013-04-29 16:16:00
8:36 AM,35.6,23.0,60,30.02,10.0,NW,8.1,-,N/A,,Mostly Cloudy,310,2013-04-29 16:36:00
8:56 AM,35.6,23.0,60,30.03,10.0,WNW,5.8,-,N/A,,Mostly Cloudy,300,2013-04-29 16:56:00
9:16 AM,35.6,24.8,65,30.05,10.0,NE,3.5,-,0.01,,Mostly Cloudy,40,2013-04-29 17:16:00
9:36 AM,35.6,24.8,65,30.05,10.0,Calm,Calm,-,0.01,,Mostly Cloudy,0,2013-04-29 17:36:00
9:56 AM,35.6,26.6,70,30.06,10.0,Calm,Calm,-,0.02,,Mostly Cloudy,0,2013-04-29 17:56:00
10:16 AM,37.4,28.4,70,30.07,10.0,Calm,Calm,-,N/A,,Mostly Cloudy,0,2013-04-29 18:16:00
10:36 AM,37.4,24.8,60,30.08,10.0,West,5.8,-,0.01,,Mostly Cloudy,280,2013-04-29 18:36:00
10:56 AM,37.4,24.8,60,30.08,10.0,NE,5.8,-,0.01,,Mostly Cloudy,40,2013-04-29 18:56:00
11:16 AM,37.4,24.8,60,30.09,10.0,West,3.5,-,N/A,,Mostly Cloudy,280,2013-04-29 19:16:00
11:36 AM,37.4,24.8,60,30.10,10.0,WSW,5.8,-,N/A,,Mostly Cloudy,250,2013-04-29 19:36:00
12:16 PM,39.2,24.8,56,30.11,10.0,West,3.5,-,N/A,,Mostly Cloudy,260,2013-04-29 20:16:00
12:36 PM,39.2,24.8,56,30.12,10.0,West,6.9,-,N/A,,Mostly Cloudy,280,2013-04-29 20:36:00
12:56 PM,39.2,24.8,56,30.13,10.0,West,12.7,17.3,N/A,,Mostly Cloudy,280,2013-04-29 20:56:00
1:16 PM,37.4,24.8,60,30.14,5.0,WNW,6.9,-,N/A,,Mostly Cloudy,300,2013-04-29 21:16:00
1:36 PM,37.4,23.0,56,30.15,5.0,WNW,8.1,-,N/A,,Mostly Cloudy,300,2013-04-29 21:36:00
1:56 PM,37.4,21.2,52,30.15,10.0,NW,6.9,-,N/A,,Mostly Cloudy,310,2013-04-29 21:56:00
2:16 PM,39.2,21.2,49,30.15,10.0,West,6.9,-,N/A,,Mostly Cloudy,280,2013-04-29 22:16:00
2:36 PM,39.2,21.2,49,30.16,10.0,West,11.5,-,N/A,,Mostly Cloudy,280,2013-04-29 22:36:00
2:56 PM,39.2,21.2,49,30.17,10.0,West,9.2,16.1,N/A,,Scattered Clouds,270,2013-04-29 22:56:00
3:16 PM,39.2,19.4,45,30.17,10.0,WNW,10.4,16.1,N/A,,Scattered Clouds,290,2013-04-29 23:16:00
3:36 PM,41.0,21.2,45,30.18,10.0,WNW,11.5,17.3,N/A,,Scattered Clouds,290,2013-04-29 23:36:00
3:56 PM,41.0,21.2,45,30.18,10.0,WNW,12.7,-,N/A,,Scattered Clouds,300,2013-04-29 23:56:00
4:16 PM,41.0,19.4,42,30.18,10.0,WNW,10.4,19.6,N/A,,Scattered Clouds,290,2013-04-30 00:16:00
4:36 PM,41.0,19.4,42,30.18,10.0,West,10.4,19.6,N/A,,Scattered Clouds,280,2013-04-30 00:36:00
4:56 PM,41.0,17.6,39,30.19,10.0,West,11.5,17.3,N/A,,Scattered Clouds,270,2013-04-30 00:56:00
5:16 PM,39.2,17.6,42,30.19,10.0,WNW,12.7,-,N/A,,Scattered Clouds,290,2013-04-30 01:16:00
5:36 PM,39.2,17.6,42,30.19,10.0,WNW,10.4,-,N/A,,Scattered Clouds,290,2013-04-30 01:36:00
5:56 PM,39.2,15.8,39,30.19,10.0,WNW,12.7,18.4,N/A,,Scattered Clouds,290,2013-04-30 01:56:00
6:16 PM,39.2,15.8,39,30.20,10.0,WNW,9.2,19.6,N/A,,Scattered Clouds,290,2013-04-30 02:16:00
6:36 PM,39.2,15.8,39,30.21,10.0,WNW,8.1,17.3,N/A,,Scattered Clouds,290,2013-04-30 02:36:00
6:56 PM,39.2,14.0,36,30.21,10.0,WNW,8.1,-,N/A,,Scattered Clouds,290,2013-04-30 02:56:00
7:16 PM,37.4,14.0,38,30.21,10.0,WNW,6.9,16.1,N/A,,Scattered Clouds,290,2013-04-30 03:16:00
7:36 PM,37.4,15.8,41,30.22,10.0,West,8.1,-,N/A,,Scattered Clouds,270,2013-04-30 03:36:00
8:16 PM,35.6,19.4,52,30.23,10.0,SSW,5.8,-,N/A,,Scattered Clouds,210,2013-04-30 04:16:00
8:36 PM,33.8,19.4,56,30.24,10.0,SSW,5.8,-,N/A,,Scattered Clouds,200,2013-04-30 04:36:00
8:56 PM,33.8,17.6,52,30.24,10.0,SW,5.8,-,N/A,,Partly Cloudy,220,2013-04-30 04:56:00
9:36 PM,35.6,15.8,44,30.25,10.0,SW,8.1,-,N/A,,Partly Cloudy,230,2013-04-30 05:36:00
9:56 PM,33.8,19.4,56,30.26,10.0,SW,8.1,-,N/A,,Partly Cloudy,230,2013-04-30 05:56:00
10:16 PM,32.0,19.4,60,30.26,10.0,SW,8.1,-,N/A,,Clear,220,2013-04-30 06:16:00
10:36 PM,32.0,19.4,60,30.26,10.0,SSW,5.8,-,N/A,,Clear,210,2013-04-30 06:36:00
10:56 PM,32.0,21.2,64,30.26,10.0,SSW,8.1,-,N/A,,Clear,210,2013-04-30 06:56:00
11:16 PM,32.0,19.4,60,30.26,10.0,SW,6.9,-,N/A,,Clear,230,2013-04-30 07:16:00
11:36 PM,30.2,21.2,69,30.27,10.0,SW,5.8,-,N/A,,Clear,220,2013-04-30 07:36:00
11:56 PM,30.2,21.2,69,30.27,10.0,West,3.5,-,N/A,,Clear,260,2013-04-30 07:56:00